Year,Month,Day,Hour,Minute,Value (Times are PST for temperature in C)
2010,03,28,00,00,13.20
2010,03,28,00,01,13.30
2010,03,28,00,02,13.30
2010,03,28,00,03,13.30
2010,03,28,00,04,13.30
2010,03,28,00,05,13.30
2010,03,28,00,06,13.40
2010,03,28,00,07,13.40
2010,03,28,00,08,13.40
2010,03,28,00,09,13.40
2010,03,28,00,10,13.40
2010,03,28,00,11,13.40
2010,03,28,00,12,13.40
2010,03,28,00,13,13.30
2010,03,28,00,14,13.30
2010,03,28,00,15,13.30
2010,03,28,00,16,13.30
2010,03,28,00,17,13.30
2010,03,28,00,18,13.30
2010,03,28,00,19,13.30
2010,03,28,00,20,13.30
2010,03,28,00,21,13.30
2010,03,28,00,22,13.30
2010,03,28,00,23,13.30
2010,03,28,00,24,13.30
2010,03,28,00,25,13.30
2010,03,28,00,26,13.30
2010,03,28,00,27,13.30
2010,03,28,00,28,13.30
2010,03,28,00,29,13.30
2010,03,28,00,30,13.30
2010,03,28,00,31,13.30
2010,03,28,00,32,13.30
2010,03,28,00,33,13.30
2010,03,28,00,34,13.30
2010,03,28,00,35,13.30
2010,03,28,00,36,13.30
2010,03,28,00,37,13.30
2010,03,28,00,38,13.30
2010,03,28,00,39,13.30
2010,03,28,00,40,13.30
2010,03,28,00,41,13.20
2010,03,28,00,42,13.20
2010,03,28,00,43,13.20
2010,03,28,00,44,13.20
2010,03,28,00,45,13.20
2010,03,28,00,46,13.10
2010,03,28,00,47,13.10
2010,03,28,00,48,13.10
2010,03,28,00,49,13.10
2010,03,28,00,50,13.10
2010,03,28,00,51,13.10
2010,03,28,00,52,13.10
2010,03,28,00,53,13.10
2010,03,28,00,54,13.10
2010,03,28,00,55,13.10
2010,03,28,00,56,13.00
2010,03,28,00,57,13.00
2010,03,28,00,58,12.90
2010,03,28,00,59,12.90
2010,03,28,01,00,12.90
2010,03,28,01,01,12.80
2010,03,28,01,02,12.80
2010,03,28,01,03,12.80
2010,03,28,01,04,12.80
2010,03,28,01,05,12.80
2010,03,28,01,06,12.80
2010,03,28,01,07,12.80
2010,03,28,01,08,12.80
2010,03,28,01,09,12.80
2010,03,28,01,10,12.80
2010,03,28,01,11,12.80
2010,03,28,01,12,12.80
2010,03,28,01,13,12.80
2010,03,28,01,14,12.80
2010,03,28,01,15,12.80
2010,03,28,01,16,12.80
2010,03,28,01,17,12.80
2010,03,28,01,18,12.80
2010,03,28,01,19,12.80
2010,03,28,01,20,12.80
2010,03,28,01,21,12.80
2010,03,28,01,22,12.80
2010,03,28,01,23,12.80
2010,03,28,01,24,12.80
2010,03,28,01,25,12.80
2010,03,28,01,26,12.80
2010,03,28,01,27,12.80
2010,03,28,01,28,12.80
2010,03,28,01,29,12.70
2010,03,28,01,30,12.70
2010,03,28,01,31,12.70
2010,03,28,01,32,12.70
2010,03,28,01,33,12.80
2010,03,28,01,34,12.80
2010,03,28,01,35,12.80
2010,03,28,01,36,12.80
2010,03,28,01,37,12.90
2010,03,28,01,38,12.90
2010,03,28,01,39,12.90
2010,03,28,01,40,12.90
2010,03,28,01,41,12.90
2010,03,28,01,42,12.90
2010,03,28,01,43,13.00
2010,03,28,01,44,13.00
2010,03,28,01,45,13.00
2010,03,28,01,46,13.00
2010,03,28,01,47,13.00
2010,03,28,01,48,13.00
2010,03,28,01,49,13.00
2010,03,28,01,50,12.90
2010,03,28,01,51,12.90
2010,03,28,01,52,12.90
2010,03,28,01,53,12.90
2010,03,28,01,54,12.90
2010,03,28,01,55,12.90
2010,03,28,01,56,12.80
2010,03,28,01,57,12.80
2010,03,28,01,58,12.80
2010,03,28,01,59,12.80
2010,03,28,02,00,12.80
2010,03,28,02,01,12.80
2010,03,28,02,02,12.80
2010,03,28,02,03,12.80
2010,03,28,02,04,12.80
2010,03,28,02,05,12.70
2010,03,28,02,06,12.70
2010,03,28,02,07,12.70
2010,03,28,02,08,12.70
2010,03,28,02,09,12.70
2010,03,28,02,10,12.60
2010,03,28,02,11,12.60
2010,03,28,02,12,12.50
2010,03,28,02,13,12.40
2010,03,28,02,14,12.40
2010,03,28,02,15,12.30
2010,03,28,02,16,12.20
2010,03,28,02,17,12.10
2010,03,28,02,18,12.10
2010,03,28,02,19,12.00
2010,03,28,02,20,11.90
2010,03,28,02,21,11.80
2010,03,28,02,22,11.80
2010,03,28,02,23,11.70
2010,03,28,02,24,11.60
2010,03,28,02,25,11.60
2010,03,28,02,26,11.50
2010,03,28,02,27,11.40
2010,03,28,02,28,11.40
2010,03,28,02,29,11.30
2010,03,28,02,30,11.20
2010,03,28,02,31,11.10
2010,03,28,02,32,11.00
2010,03,28,02,33,10.90
2010,03,28,02,34,10.80
2010,03,28,02,35,10.80
2010,03,28,02,36,10.70
2010,03,28,02,37,10.60
2010,03,28,02,38,10.60
2010,03,28,02,39,10.50
2010,03,28,02,40,10.50
2010,03,28,02,41,10.40
2010,03,28,02,42,10.40
2010,03,28,02,43,10.40
2010,03,28,02,44,10.40
2010,03,28,02,45,10.40
2010,03,28,02,46,10.40
2010,03,28,02,47,10.40
2010,03,28,02,48,10.30
2010,03,28,02,49,10.30
2010,03,28,02,50,10.30
2010,03,28,02,51,10.30
2010,03,28,02,52,10.30
2010,03,28,02,53,10.30
2010,03,28,02,54,10.20
2010,03,28,02,55,10.20
2010,03,28,02,56,10.20
2010,03,28,02,57,10.20
2010,03,28,02,58,10.10
2010,03,28,02,59,10.10
2010,03,28,03,00,10.00
2010,03,28,03,01,9.90
2010,03,28,03,02,9.80
2010,03,28,03,03,9.80
2010,03,28,03,04,9.70
2010,03,28,03,05,9.60
2010,03,28,03,06,9.50
2010,03,28,03,07,9.40
2010,03,28,03,08,9.30
2010,03,28,03,09,9.20
2010,03,28,03,10,9.20
2010,03,28,03,11,9.10
2010,03,28,03,12,9.10
2010,03,28,03,13,9.00
2010,03,28,03,14,9.00
2010,03,28,03,15,8.90
2010,03,28,03,16,8.90
2010,03,28,03,17,8.80
2010,03,28,03,18,8.80
2010,03,28,03,19,8.70
2010,03,28,03,20,8.70
2010,03,28,03,21,8.70
2010,03,28,03,22,8.60
2010,03,28,03,23,8.60
2010,03,28,03,24,8.60
2010,03,28,03,25,8.50
2010,03,28,03,26,8.50
2010,03,28,03,27,8.40
2010,03,28,03,28,8.40
2010,03,28,03,29,8.40
2010,03,28,03,30,8.40
2010,03,28,03,31,8.30
2010,03,28,03,32,8.30
2010,03,28,03,33,8.30
2010,03,28,03,34,8.30
2010,03,28,03,35,8.30
2010,03,28,03,36,8.20
2010,03,28,03,37,8.20
2010,03,28,03,38,8.20
2010,03,28,03,39,8.20
2010,03,28,03,40,8.20
2010,03,28,03,41,8.10
2010,03,28,03,42,8.10
2010,03,28,03,43,8.10
2010,03,28,03,44,8.10
2010,03,28,03,45,8.10
2010,03,28,03,46,8.10
2010,03,28,03,47,8.10
2010,03,28,03,48,8.10
2010,03,28,03,49,8.10
2010,03,28,03,50,8.10
2010,03,28,03,51,8.10
2010,03,28,03,52,8.10
2010,03,28,03,53,8.10
2010,03,28,03,54,8.10
2010,03,28,03,55,8.10
2010,03,28,03,56,8.10
2010,03,28,03,57,8.10
2010,03,28,03,58,8.10
2010,03,28,03,59,8.10
2010,03,28,04,00,8.10
2010,03,28,04,01,8.10
2010,03,28,04,02,8.10
2010,03,28,04,03,8.10
2010,03,28,04,04,8.10
2010,03,28,04,05,8.10
2010,03,28,04,06,8.10
2010,03,28,04,07,8.00
2010,03,28,04,08,8.10
2010,03,28,04,09,8.10
2010,03,28,04,10,8.00
2010,03,28,04,11,8.00
2010,03,28,04,12,8.00
2010,03,28,04,13,8.00
2010,03,28,04,14,8.00
2010,03,28,04,15,8.00
2010,03,28,04,16,8.00
2010,03,28,04,17,8.00
2010,03,28,04,18,8.00
2010,03,28,04,19,8.00
2010,03,28,04,20,8.00
2010,03,28,04,21,8.00
2010,03,28,04,22,8.00
2010,03,28,04,23,8.00
2010,03,28,04,24,8.00
2010,03,28,04,25,7.90
2010,03,28,04,26,7.90
2010,03,28,04,27,7.90
2010,03,28,04,28,7.90
2010,03,28,04,29,7.90
2010,03,28,04,30,7.90
2010,03,28,04,31,7.90
2010,03,28,04,32,7.90
2010,03,28,04,33,7.90
2010,03,28,04,34,7.90
2010,03,28,04,35,7.90
2010,03,28,04,36,7.90
2010,03,28,04,37,7.90
2010,03,28,04,38,7.90
2010,03,28,04,39,7.90
2010,03,28,04,40,7.90
2010,03,28,04,41,7.90
2010,03,28,04,42,7.90
2010,03,28,04,43,7.80
2010,03,28,04,44,7.80
2010,03,28,04,45,7.80
2010,03,28,04,46,7.80
2010,03,28,04,47,7.80
2010,03,28,04,48,7.80
2010,03,28,04,49,7.80
2010,03,28,04,50,7.80
2010,03,28,04,51,7.80
2010,03,28,04,52,7.80
2010,03,28,04,53,7.80
2010,03,28,04,54,7.80
2010,03,28,04,55,7.80
2010,03,28,04,56,7.70
2010,03,28,04,57,7.70
2010,03,28,04,58,7.70
2010,03,28,04,59,7.70
2010,03,28,05,00,7.70
2010,03,28,05,01,7.70
2010,03,28,05,02,7.70
2010,03,28,05,03,7.70
2010,03,28,05,04,7.60
2010,03,28,05,05,7.60
2010,03,28,05,06,7.60
2010,03,28,05,07,7.60
2010,03,28,05,08,7.60
2010,03,28,05,09,7.60
2010,03,28,05,10,7.60
2010,03,28,05,11,7.60
2010,03,28,05,12,7.60
2010,03,28,05,13,7.60
2010,03,28,05,14,7.60
2010,03,28,05,15,7.60
2010,03,28,05,16,7.50
2010,03,28,05,17,7.50
2010,03,28,05,18,7.50
2010,03,28,05,19,7.50
2010,03,28,05,20,7.50
2010,03,28,05,21,7.50
2010,03,28,05,22,7.50
2010,03,28,05,23,7.40
2010,03,28,05,24,7.40
2010,03,28,05,25,7.40
2010,03,28,05,26,7.40
2010,03,28,05,27,7.40
2010,03,28,05,28,7.40
2010,03,28,05,29,7.40
2010,03,28,05,30,7.40
2010,03,28,05,31,7.40
2010,03,28,05,32,7.40
2010,03,28,05,33,7.40
2010,03,28,05,34,7.40
2010,03,28,05,35,7.40
2010,03,28,05,36,7.40
2010,03,28,05,37,7.40
2010,03,28,05,38,7.50
2010,03,28,05,39,7.50
2010,03,28,05,40,7.50
2010,03,28,05,41,7.50
2010,03,28,05,42,7.60
2010,03,28,05,43,7.60
2010,03,28,05,44,7.60
2010,03,28,05,45,7.60
2010,03,28,05,46,7.60
2010,03,28,05,47,7.70
2010,03,28,05,48,7.70
2010,03,28,05,49,7.70
2010,03,28,05,50,7.70
2010,03,28,05,51,7.70
2010,03,28,05,52,7.70
2010,03,28,05,53,7.70
2010,03,28,05,54,7.70
2010,03,28,05,55,7.70
2010,03,28,05,56,7.70
2010,03,28,05,57,7.70
2010,03,28,05,58,7.70
2010,03,28,05,59,7.70
2010,03,28,06,00,7.70
2010,03,28,06,01,7.70
2010,03,28,06,02,7.70
2010,03,28,06,03,7.70
2010,03,28,06,04,7.60
2010,03,28,06,05,7.60
2010,03,28,06,06,7.60
2010,03,28,06,07,7.60
2010,03,28,06,08,7.60
2010,03,28,06,09,7.50
2010,03,28,06,10,7.50
2010,03,28,06,11,7.40
2010,03,28,06,12,7.40
2010,03,28,06,13,7.40
2010,03,28,06,14,7.30
2010,03,28,06,15,7.30
2010,03,28,06,16,7.30
2010,03,28,06,17,7.30
2010,03,28,06,18,7.30
2010,03,28,06,19,7.30
2010,03,28,06,20,7.30
2010,03,28,06,21,7.30
2010,03,28,06,22,7.30
2010,03,28,06,23,7.30
2010,03,28,06,24,7.20
2010,03,28,06,25,7.20
2010,03,28,06,26,7.20
2010,03,28,06,27,7.20
2010,03,28,06,28,7.20
2010,03,28,06,29,7.20
2010,03,28,06,30,7.20
2010,03,28,06,31,7.20
2010,03,28,06,32,7.20
2010,03,28,06,33,7.20
2010,03,28,06,34,7.20
2010,03,28,06,35,7.20
2010,03,28,06,36,7.20
2010,03,28,06,37,7.20
2010,03,28,06,38,7.20
2010,03,28,06,39,7.20
2010,03,28,06,40,7.30
2010,03,28,06,41,7.30
2010,03,28,06,42,7.30
2010,03,28,06,43,7.30
2010,03,28,06,44,7.30
2010,03,28,06,45,7.30
2010,03,28,06,46,7.30
2010,03,28,06,47,7.20
2010,03,28,06,48,7.20
2010,03,28,06,49,7.20
2010,03,28,06,50,7.20
2010,03,28,06,51,7.20
2010,03,28,06,52,7.20
2010,03,28,06,53,7.20
2010,03,28,06,54,7.20
2010,03,28,06,55,7.20
2010,03,28,06,56,7.20
2010,03,28,06,57,7.30
2010,03,28,06,58,7.30
2010,03,28,06,59,7.30
2010,03,28,07,00,7.30
2010,03,28,07,01,7.40
2010,03,28,07,02,7.40
2010,03,28,07,03,7.50
2010,03,28,07,04,7.50
2010,03,28,07,05,7.50
2010,03,28,07,06,7.60
2010,03,28,07,07,7.60
2010,03,28,07,08,7.60
2010,03,28,07,09,7.60
2010,03,28,07,10,7.70
2010,03,28,07,11,7.70
2010,03,28,07,12,7.60
2010,03,28,07,13,7.70
2010,03,28,07,14,7.70
2010,03,28,07,15,7.70
2010,03,28,07,16,7.70
2010,03,28,07,17,7.60
2010,03,28,07,18,7.60
2010,03,28,07,19,7.60
2010,03,28,07,20,7.60
2010,03,28,07,21,7.60
2010,03,28,07,22,7.60
2010,03,28,07,23,7.60
2010,03,28,07,24,7.60
2010,03,28,07,25,7.60
2010,03,28,07,26,7.60
2010,03,28,07,27,7.60
2010,03,28,07,28,7.60
2010,03,28,07,29,7.60
2010,03,28,07,30,7.60
2010,03,28,07,31,7.60
2010,03,28,07,32,7.60
2010,03,28,07,33,7.60
2010,03,28,07,34,7.60
2010,03,28,07,35,7.60
2010,03,28,07,36,7.60
2010,03,28,07,37,7.60
2010,03,28,07,38,7.60
2010,03,28,07,39,7.60
2010,03,28,07,40,7.60
2010,03,28,07,41,7.60
2010,03,28,07,42,7.70
2010,03,28,07,43,7.70
2010,03,28,07,44,7.70
2010,03,28,07,45,7.70
2010,03,28,07,46,7.70
2010,03,28,07,47,7.70
2010,03,28,07,48,7.70
2010,03,28,07,49,7.70
2010,03,28,07,50,7.70
2010,03,28,07,51,7.70
2010,03,28,07,52,7.70
2010,03,28,07,53,7.70
2010,03,28,07,54,7.70
2010,03,28,07,55,7.70
2010,03,28,07,56,7.70
2010,03,28,07,57,7.70
2010,03,28,07,58,7.70
2010,03,28,07,59,7.70
2010,03,28,08,00,7.70
2010,03,28,08,01,7.70
2010,03,28,08,02,7.70
2010,03,28,08,03,7.70
2010,03,28,08,04,7.80
2010,03,28,08,05,7.80
2010,03,28,08,06,7.80
2010,03,28,08,07,7.80
2010,03,28,08,08,7.80
2010,03,28,08,09,7.80
2010,03,28,08,10,7.80
2010,03,28,08,11,7.80
2010,03,28,08,12,7.80
2010,03,28,08,13,7.80
2010,03,28,08,14,7.90
2010,03,28,08,15,7.90
2010,03,28,08,16,7.90
2010,03,28,08,17,7.90
2010,03,28,08,18,7.90
2010,03,28,08,19,7.90
2010,03,28,08,20,8.00
2010,03,28,08,21,8.00
2010,03,28,08,22,8.00
2010,03,28,08,23,8.10
2010,03,28,08,24,8.10
2010,03,28,08,25,8.10
2010,03,28,08,26,8.10
2010,03,28,08,27,8.10
2010,03,28,08,28,8.10
2010,03,28,08,29,8.20
2010,03,28,08,30,8.20
2010,03,28,08,31,8.20
2010,03,28,08,32,8.20
2010,03,28,08,33,8.20
2010,03,28,08,34,8.20
2010,03,28,08,35,8.20
2010,03,28,08,36,8.20
2010,03,28,08,37,8.20
2010,03,28,08,38,8.30
2010,03,28,08,39,8.30
2010,03,28,08,40,8.30
2010,03,28,08,41,8.30
2010,03,28,08,42,8.30
2010,03,28,08,43,8.30
2010,03,28,08,44,8.30
2010,03,28,08,45,8.30
2010,03,28,08,46,8.30
2010,03,28,08,47,8.30
2010,03,28,08,48,8.30
2010,03,28,08,49,8.30
2010,03,28,08,50,8.30
2010,03,28,08,51,8.30
2010,03,28,08,52,8.30
2010,03,28,08,53,8.30
2010,03,28,08,54,8.30
2010,03,28,08,55,8.30
2010,03,28,08,56,8.30
2010,03,28,08,57,8.30
2010,03,28,08,58,8.30
2010,03,28,08,59,8.30
2010,03,28,09,00,8.40
2010,03,28,09,01,8.40
2010,03,28,09,02,8.30
2010,03,28,09,03,8.30
2010,03,28,09,04,8.30
2010,03,28,09,05,8.30
2010,03,28,09,06,8.30
2010,03,28,09,07,8.30
2010,03,28,09,08,8.40
2010,03,28,09,09,8.40
2010,03,28,09,10,8.40
2010,03,28,09,11,8.40
2010,03,28,09,12,8.50
2010,03,28,09,13,8.50
2010,03,28,09,14,8.50
2010,03,28,09,15,8.50
2010,03,28,09,16,8.50
2010,03,28,09,17,8.60
2010,03,28,09,18,8.60
2010,03,28,09,19,8.60
2010,03,28,09,20,8.60
2010,03,28,09,21,8.60
2010,03,28,09,22,8.60
2010,03,28,09,23,8.60
2010,03,28,09,24,8.70
2010,03,28,09,25,8.70
2010,03,28,09,26,8.70
2010,03,28,09,27,8.70
2010,03,28,09,28,8.70
2010,03,28,09,29,8.80
2010,03,28,09,30,8.80
2010,03,28,09,31,8.80
2010,03,28,09,32,8.80
2010,03,28,09,33,8.80
2010,03,28,09,34,8.80
2010,03,28,09,35,8.80
2010,03,28,09,36,8.80
2010,03,28,09,37,8.80
2010,03,28,09,38,8.80
2010,03,28,09,39,8.90
2010,03,28,09,40,8.90
2010,03,28,09,41,8.90
2010,03,28,09,42,8.90
2010,03,28,09,43,8.90
2010,03,28,09,44,8.90
2010,03,28,09,45,8.90
2010,03,28,09,46,8.90
2010,03,28,09,47,8.90
2010,03,28,09,48,8.90
2010,03,28,09,49,8.90
2010,03,28,09,50,8.90
2010,03,28,09,51,8.90
2010,03,28,09,52,8.90
2010,03,28,09,53,8.90
2010,03,28,09,54,8.90
2010,03,28,09,55,9.00
2010,03,28,09,56,9.00
2010,03,28,09,57,9.00
2010,03,28,09,58,9.00
2010,03,28,09,59,9.00
2010,03,28,10,00,9.00
2010,03,28,10,01,9.00
2010,03,28,10,02,9.10
2010,03,28,10,03,9.10
2010,03,28,10,04,9.00
2010,03,28,10,05,9.10
2010,03,28,10,06,9.10
2010,03,28,10,07,9.10
2010,03,28,10,08,9.10
2010,03,28,10,09,9.10
2010,03,28,10,10,9.10
2010,03,28,10,11,9.10
2010,03,28,10,12,9.20
2010,03,28,10,13,9.20
2010,03,28,10,14,9.20
2010,03,28,10,15,9.20
2010,03,28,10,16,9.30
2010,03,28,10,17,9.30
2010,03,28,10,18,9.40
2010,03,28,10,19,9.40
2010,03,28,10,20,9.40
2010,03,28,10,21,9.40
2010,03,28,10,22,9.50
2010,03,28,10,23,9.50
2010,03,28,10,24,9.60
2010,03,28,10,25,9.70
2010,03,28,10,26,9.70
2010,03,28,10,27,9.70
2010,03,28,10,28,9.80
2010,03,28,10,29,9.80
2010,03,28,10,30,9.90
2010,03,28,10,31,9.90
2010,03,28,10,32,9.90
2010,03,28,10,33,10.00
2010,03,28,10,34,10.00
2010,03,28,10,35,10.10
2010,03,28,10,36,10.20
2010,03,28,10,37,10.20
2010,03,28,10,38,10.30
2010,03,28,10,39,10.30
2010,03,28,10,40,10.40
2010,03,28,10,41,10.50
2010,03,28,10,42,10.50
2010,03,28,10,43,10.60
2010,03,28,10,44,10.60
2010,03,28,10,45,10.60
2010,03,28,10,46,10.60
2010,03,28,10,47,10.50
2010,03,28,10,48,10.50
2010,03,28,10,49,10.50
2010,03,28,10,50,10.40
2010,03,28,10,51,10.40
2010,03,28,10,52,10.40
2010,03,28,10,53,10.50
2010,03,28,10,54,10.50
2010,03,28,10,55,10.60
2010,03,28,10,56,10.70
2010,03,28,10,57,10.70
2010,03,28,10,58,10.80
2010,03,28,10,59,10.80
2010,03,28,11,00,10.90
2010,03,28,11,01,10.90
2010,03,28,11,02,11.00
2010,03,28,11,03,11.10
2010,03,28,11,04,11.20
2010,03,28,11,05,11.30
2010,03,28,11,06,11.30
2010,03,28,11,07,11.40
2010,03,28,11,08,11.40
2010,03,28,11,09,11.40
2010,03,28,11,10,11.30
2010,03,28,11,11,11.30
2010,03,28,11,12,11.30
2010,03,28,11,13,11.30
2010,03,28,11,14,11.30
2010,03,28,11,15,11.30
2010,03,28,11,16,11.30
2010,03,28,11,17,11.20
2010,03,28,11,18,11.20
2010,03,28,11,19,11.20
2010,03,28,11,20,11.20
2010,03,28,11,21,11.20
2010,03,28,11,22,11.20
2010,03,28,11,23,11.20
2010,03,28,11,24,11.30
2010,03,28,11,25,11.30
2010,03,28,11,26,11.30
2010,03,28,11,27,11.40
2010,03,28,11,28,11.40
2010,03,28,11,29,11.40
2010,03,28,11,30,11.40
2010,03,28,11,31,11.40
2010,03,28,11,32,11.40
2010,03,28,11,33,11.40
2010,03,28,11,34,11.40
2010,03,28,11,35,11.40
2010,03,28,11,36,11.50
2010,03,28,11,37,11.50
2010,03,28,11,38,11.50
2010,03,28,11,39,11.60
2010,03,28,11,40,11.60
2010,03,28,11,41,11.60
2010,03,28,11,42,11.60
2010,03,28,11,43,11.60
2010,03,28,11,44,11.60
2010,03,28,11,45,11.60
2010,03,28,11,46,11.60
2010,03,28,11,47,11.60
2010,03,28,11,48,11.60
2010,03,28,11,49,11.70
2010,03,28,11,50,11.60
2010,03,28,11,51,11.60
2010,03,28,11,52,11.60
2010,03,28,11,53,11.60
2010,03,28,11,54,11.60
2010,03,28,11,55,11.70
2010,03,28,11,56,11.70
2010,03,28,11,57,11.80
2010,03,28,11,58,11.80
2010,03,28,11,59,11.80
2010,03,28,12,00,11.90
2010,03,28,12,01,11.90
2010,03,28,12,02,11.90
2010,03,28,12,03,11.90
2010,03,28,12,04,12.00
2010,03,28,12,05,12.00
2010,03,28,12,06,12.10
2010,03,28,12,07,12.10
2010,03,28,12,08,12.10
2010,03,28,12,09,12.10
2010,03,28,12,10,12.20
2010,03,28,12,11,12.10
2010,03,28,12,12,12.10
2010,03,28,12,13,12.10
2010,03,28,12,14,12.20
2010,03,28,12,15,12.20
2010,03,28,12,16,12.20
2010,03,28,12,17,12.20
2010,03,28,12,18,12.20
2010,03,28,12,19,12.20
2010,03,28,12,20,12.20
2010,03,28,12,21,12.10
2010,03,28,12,22,12.10
2010,03,28,12,23,12.00
2010,03,28,12,24,12.00
2010,03,28,12,25,12.00
2010,03,28,12,26,12.00
2010,03,28,12,27,12.00
2010,03,28,12,28,11.90
2010,03,28,12,29,11.90
2010,03,28,12,30,11.80
2010,03,28,12,31,11.80
2010,03,28,12,32,11.70
2010,03,28,12,33,11.70
2010,03,28,12,34,11.70
2010,03,28,12,35,11.60
2010,03,28,12,36,11.60
2010,03,28,12,37,11.50
2010,03,28,12,38,11.50
2010,03,28,12,39,11.50
2010,03,28,12,40,11.50
2010,03,28,12,41,11.50
2010,03,28,12,42,11.50
2010,03,28,12,43,11.60
2010,03,28,12,44,11.60
2010,03,28,12,45,11.60
2010,03,28,12,46,11.60
2010,03,28,12,47,11.50
2010,03,28,12,48,11.50
2010,03,28,12,49,11.50
2010,03,28,12,50,11.40
2010,03,28,12,51,11.40
2010,03,28,12,52,11.30
2010,03,28,12,53,11.30
2010,03,28,12,54,11.20
2010,03,28,12,55,11.10
2010,03,28,12,56,11.10
2010,03,28,12,57,11.00
2010,03,28,12,58,11.10
2010,03,28,12,59,11.10
2010,03,28,13,00,11.10
2010,03,28,13,01,11.10
2010,03,28,13,02,11.10
2010,03,28,13,03,11.10
2010,03,28,13,04,11.10
2010,03,28,13,05,11.10
2010,03,28,13,06,11.10
2010,03,28,13,07,11.10
2010,03,28,13,08,11.10
2010,03,28,13,09,11.10
2010,03,28,13,10,11.10
2010,03,28,13,11,11.10
2010,03,28,13,12,11.00
2010,03,28,13,13,11.00
2010,03,28,13,14,11.00
2010,03,28,13,15,10.90
2010,03,28,13,16,10.90
2010,03,28,13,17,10.90
2010,03,28,13,18,10.90
2010,03,28,13,19,10.90
2010,03,28,13,20,10.90
2010,03,28,13,21,10.90
2010,03,28,13,22,10.90
2010,03,28,13,23,10.80
2010,03,28,13,24,10.80
2010,03,28,13,25,10.80
2010,03,28,13,26,10.80
2010,03,28,13,27,10.80
2010,03,28,13,28,10.80
2010,03,28,13,29,10.80
2010,03,28,13,30,10.80
2010,03,28,13,31,10.80
2010,03,28,13,32,10.80
2010,03,28,13,33,10.80
2010,03,28,13,34,10.80
2010,03,28,13,35,10.80
2010,03,28,13,36,10.80
2010,03,28,13,37,10.80
2010,03,28,13,38,10.80
2010,03,28,13,39,10.70
2010,03,28,13,40,10.70
2010,03,28,13,41,10.70
2010,03,28,13,42,10.70
2010,03,28,13,43,10.70
2010,03,28,13,44,10.70
2010,03,28,13,45,10.70
2010,03,28,13,46,10.70
2010,03,28,13,47,10.70
2010,03,28,13,48,10.70
2010,03,28,13,49,10.70
2010,03,28,13,50,10.70
2010,03,28,13,51,10.70
2010,03,28,13,52,10.70
2010,03,28,13,53,10.70
2010,03,28,13,54,10.70
2010,03,28,13,55,10.70
2010,03,28,13,56,10.70
2010,03,28,13,57,10.70
2010,03,28,13,58,10.80
2010,03,28,13,59,10.80
2010,03,28,14,00,10.80
2010,03,28,14,01,10.80
2010,03,28,14,02,10.80
2010,03,28,14,03,10.90
2010,03,28,14,04,10.80
2010,03,28,14,05,10.80
2010,03,28,14,06,10.80
2010,03,28,14,07,10.80
2010,03,28,14,08,10.80
2010,03,28,14,09,10.80
2010,03,28,14,10,10.80
2010,03,28,14,11,10.80
2010,03,28,14,12,10.80
2010,03,28,14,13,10.80
2010,03,28,14,14,10.90
2010,03,28,14,15,10.90
2010,03,28,14,16,10.90
2010,03,28,14,17,10.90
2010,03,28,14,18,10.90
2010,03,28,14,19,10.90
2010,03,28,14,20,10.90
2010,03,28,14,21,10.90
2010,03,28,14,22,10.90
2010,03,28,14,23,10.90
2010,03,28,14,24,10.80
2010,03,28,14,25,10.80
2010,03,28,14,26,10.80
2010,03,28,14,27,10.80
2010,03,28,14,28,10.80
2010,03,28,14,29,10.80
2010,03,28,14,30,10.80
2010,03,28,14,31,10.80
2010,03,28,14,32,10.80
2010,03,28,14,33,10.80
2010,03,28,14,34,10.80
2010,03,28,14,35,10.80
2010,03,28,14,36,10.80
2010,03,28,14,37,10.80
2010,03,28,14,38,10.80
2010,03,28,14,39,10.80
2010,03,28,14,40,10.80
2010,03,28,14,41,10.80
2010,03,28,14,42,10.80
2010,03,28,14,43,10.80
2010,03,28,14,44,10.80
2010,03,28,14,45,10.80
2010,03,28,14,46,10.80
2010,03,28,14,47,10.80
2010,03,28,14,48,10.80
2010,03,28,14,49,10.80
2010,03,28,14,50,10.80
2010,03,28,14,51,10.80
2010,03,28,14,52,10.80
2010,03,28,14,53,10.80
2010,03,28,14,54,10.90
2010,03,28,14,55,10.90
2010,03,28,14,56,10.90
2010,03,28,14,57,10.90
2010,03,28,14,58,10.90
2010,03,28,14,59,10.90
2010,03,28,15,00,10.90
2010,03,28,15,01,10.90
2010,03,28,15,02,10.90
2010,03,28,15,03,10.90
2010,03,28,15,04,10.90
2010,03,28,15,05,10.90
2010,03,28,15,06,10.90
2010,03,28,15,07,10.90
2010,03,28,15,08,10.90
2010,03,28,15,09,10.90
2010,03,28,15,10,10.90
2010,03,28,15,11,10.80
2010,03,28,15,12,10.80
2010,03,28,15,13,10.80
2010,03,28,15,14,10.80
2010,03,28,15,15,10.90
2010,03,28,15,16,10.90
2010,03,28,15,17,10.90
2010,03,28,15,18,11.00
2010,03,28,15,19,11.00
2010,03,28,15,20,11.00
2010,03,28,15,21,11.10
2010,03,28,15,22,11.10
2010,03,28,15,23,11.10
2010,03,28,15,24,11.10
2010,03,28,15,25,11.10
2010,03,28,15,26,11.10
2010,03,28,15,27,11.10
2010,03,28,15,28,11.10
2010,03,28,15,29,11.10
2010,03,28,15,30,11.10
2010,03,28,15,31,11.10
2010,03,28,15,32,11.10
2010,03,28,15,33,11.10
2010,03,28,15,34,11.20
2010,03,28,15,35,11.20
2010,03,28,15,36,11.20
2010,03,28,15,37,11.20
2010,03,28,15,38,11.20
2010,03,28,15,39,11.20
2010,03,28,15,40,11.20
2010,03,28,15,41,11.30
2010,03,28,15,42,11.30
2010,03,28,15,43,11.30
2010,03,28,15,44,11.30
2010,03,28,15,45,11.30
2010,03,28,15,46,11.30
2010,03,28,15,47,11.30
2010,03,28,15,48,11.30
2010,03,28,15,49,11.30
2010,03,28,15,50,11.30
2010,03,28,15,51,11.30
2010,03,28,15,52,11.30
2010,03,28,15,53,11.30
2010,03,28,15,54,11.30
2010,03,28,15,55,11.30
2010,03,28,15,56,11.30
2010,03,28,15,57,11.30
2010,03,28,15,58,11.30
2010,03,28,15,59,11.20
2010,03,28,16,00,11.20
2010,03,28,16,01,11.10
2010,03,28,16,02,11.10
2010,03,28,16,03,11.00
2010,03,28,16,04,11.00
2010,03,28,16,05,10.90
2010,03,28,16,06,10.90
2010,03,28,16,07,10.80
2010,03,28,16,08,10.80
2010,03,28,16,09,10.70
2010,03,28,16,10,10.70
2010,03,28,16,11,10.60
2010,03,28,16,12,10.60
2010,03,28,16,13,10.60
2010,03,28,16,14,10.60
2010,03,28,16,15,10.60
2010,03,28,16,16,10.60
2010,03,28,16,17,10.60
2010,03,28,16,18,10.60
2010,03,28,16,19,10.60
2010,03,28,16,20,10.60
2010,03,28,16,21,10.60
2010,03,28,16,22,10.60
2010,03,28,16,23,10.60
2010,03,28,16,24,10.60
2010,03,28,16,25,10.60
2010,03,28,16,26,10.60
2010,03,28,16,27,10.60
2010,03,28,16,28,10.60
2010,03,28,16,29,10.60
2010,03,28,16,30,10.60
2010,03,28,16,31,10.60
2010,03,28,16,32,10.60
2010,03,28,16,33,10.60
2010,03,28,16,34,10.70
2010,03,28,16,35,10.70
2010,03,28,16,36,10.70
2010,03,28,16,37,10.70
2010,03,28,16,38,10.70
2010,03,28,16,39,10.70
2010,03,28,16,40,10.70
2010,03,28,16,41,10.80
2010,03,28,16,42,10.80
2010,03,28,16,43,10.90
2010,03,28,16,44,10.90
2010,03,28,16,45,11.00
2010,03,28,16,46,11.00
2010,03,28,16,47,11.10
2010,03,28,16,48,11.10
2010,03,28,16,49,11.20
2010,03,28,16,50,11.20
2010,03,28,16,51,11.30
2010,03,28,16,52,11.30
2010,03,28,16,53,11.40
2010,03,28,16,54,11.40
2010,03,28,16,55,11.40
2010,03,28,16,56,11.50
2010,03,28,16,57,11.50
2010,03,28,16,58,11.50
2010,03,28,16,59,11.60
2010,03,28,17,00,11.60
2010,03,28,17,01,11.60
2010,03,28,17,02,11.60
2010,03,28,17,03,11.50
2010,03,28,17,04,11.40
2010,03,28,17,05,11.40
2010,03,28,17,06,11.30
2010,03,28,17,07,11.20
2010,03,28,17,08,11.10
2010,03,28,17,09,11.00
2010,03,28,17,10,11.00
2010,03,28,17,11,10.90
2010,03,28,17,12,10.80
2010,03,28,17,13,10.80
2010,03,28,17,14,10.80
2010,03,28,17,15,10.70
2010,03,28,17,16,10.70
2010,03,28,17,17,10.70
2010,03,28,17,18,10.70
2010,03,28,17,19,10.60
2010,03,28,17,20,10.60
2010,03,28,17,21,10.60
2010,03,28,17,22,10.60
2010,03,28,17,23,10.60
2010,03,28,17,24,10.60
2010,03,28,17,25,10.60
2010,03,28,17,26,10.70
2010,03,28,17,27,10.70
2010,03,28,17,28,10.70
2010,03,28,17,29,10.70
2010,03,28,17,30,10.70
2010,03,28,17,31,10.70
2010,03,28,17,32,10.70
2010,03,28,17,33,10.70
2010,03,28,17,34,10.70
2010,03,28,17,35,10.70
2010,03,28,17,36,10.70
2010,03,28,17,37,10.70
2010,03,28,17,38,10.60
2010,03,28,17,39,10.60